Home > Weather > Lord Howe Island > Past weeks

Flag for Australia Past Weather in Lord Howe Island, Lord Howe Island, Australia — Yesterday and Last 2 Weeks

Now
64 °F

Passing clouds.


Feels Like: 64 °F
Forecast: 62 / 66 °F
Wind: 13 mph from East

Location: Lord Howe Island

Current Time: Aug 30, 2016 at 3:50:39 PM

Latest Report: Aug 30, 2016 at 3:00 PM


Visibility: N/A

Pressure: 30.35 "Hg

Humidity: 60%

Dew Point: 50 °F

Location of Lord Howe IslandLocation

Past Weather in Lord Howe Island — Graph

°F

Lord Howe Island Temperature Yesterday

Maximum temperature yesterday: 67 °F (at 1:30 PM)
Minimum temperature yesterday: 61 °F (at 12:00 AM)
Average temperature yesterday: 64 °F

High & Low Weather Summary for the Past Weeks

 TemperatureHumidityPressure
High71 °F (Aug 23, 12:00 PM)95% (Aug 24, 4:30 AM)30.43 "Hg (Aug 24, 4:30 AM)
Low52 °F (Aug 18, 6:00 AM)42% (Aug 19, 9:00 AM)29.50 "Hg (Aug 25, 12:00 AM)
Average63 °F65%30.11 "Hg
* Reported Aug 15 1:30 PM — Aug 30 1:30 PM, Lord Howe Island, Weather by CustomWeather, © 2016

Note: Actual official high and low records may vary slightly from our data, if they occured in-between our weather recording intervals... More about our weather records

Advertising

Lord Howe Island Weather History for the Previous 24 Hours

Scroll right to see more
 ConditionsComfort  
Time TempWeatherWind HumidityBarometerVisibility
1:30 PM
Tue, Aug 30
63 °FMild.12 mph59%30.37 "HgN/A
12:00 PM63 °FOvercast.10 mph64%30.39 "HgN/A
10:30 AM64 °FMild.13 mph61%30.41 "HgN/A
9:00 AM61 °FOvercast.3 mph68%30.42 "HgN/A
7:30 AM64 °FMild.6 mph58%30.38 "HgN/A
6:00 AM57 °FOvercast.1 mph73%30.34 "HgN/A
4:30 AM57 °FCool.1 mph69%30.32 "HgN/A
3:00 AM60 °FPassing clouds.6 mph62%30.30 "HgN/A
1:30 AM61 °FRefreshingly cool.5 mph59%30.32 "HgN/A
12:00 AM62 °FPassing clouds.8 mph54%30.32 "HgN/A
10:30 PM
Mon, Aug 29
62 °FRefreshingly cool.9 mph57%30.32 "HgN/A
9:00 PM62 °FRefreshingly cool.7 mph60%30.32 "HgN/A
7:30 PM62 °FCool.9 mph60%30.30 "HgN/A
6:00 PM63 °FMild.10 mph58%30.26 "HgN/A
4:30 PM65 °FMild.13 mph56%30.25 "HgN/A
3:00 PM66 °FMild.12 mph57%30.23 "HgN/A
Weather by CustomWeather, © 2016

See weather overviewHow to use our weather pages